Wind_Speed
37 38 38 36 37 38 39 40 39 38 40 40 39 41 41 39 40 43 45 47 47 49 53 55 56 60 63 65 66 65 63 63 65 69 69 70 73 72 66 60 51 47 51 54 53 54 54 51 48 48 49 47 45 47 47 48 49 50 49 47 44 44 44 42 41 40 38 36 33 30 29 28 28 28 26 25 24 25 25 25 25 25 26 27 25 24 24
38 38 37 36 38 38 38 39 38 38 39 39 39 40 40 38 41 43 45 46 47 48 51 54 55 58 61 64 67 68 67 65 65 69 71 71 73 75 73 70 64 56 55 56 56 56 57 57 54 51 51 51 49 49 50 50 51 50 50 49 46 43 42 43 44 42 41 39 36 34 32 31 31 31 30 29 28 28 27 26 26 27 28 28 27 26 26
36 35 34 34 36 36 36 37 37 38 38 37 38 39 38 39 41 41 42 44 47 48 49 52 54 57 59 62 66 69 69 69 67 69 71 72 74 76 76 77 75 67 62 62 61 60 59 59 58 56 54 54 53 53 53 53 54 53 52 53 50 44 41 43 46 46 44 42 39 37 36 35 34 34 34 33 33 32 31 30 29 29 29 29 28 28 28
35 35 34 35 36 36 36 36 36 36 36 36 37 37 38 40 41 40 41 43 45 47 48 51 54 56 58 60 64 68 70 71 70 71 72 72 73 76 77 78 76 72 71 72 68 65 62 59 59 61 59 57 57 57 56 56 55 54 54 54 49 44 43 46 48 50 48 45 43 41 40 38 37 37 37 37 36 36 35 34 32 31 31 29 29 29 28
36 36 34 34 35 35 34 34 33 33 32 33 33 33 35 38 39 40 42 43 43 45 47 50 53 56 58 60 63 66 69 72 72 72 73 73 72 74 77 79 77 74 77 78 74 69 66 62 60 62 63 61 61 61 59 57 55 55 57 57 51 46 46 48 49 53 52 48 45 44 42 42 41 41 41 40 39 38 38 37 36 35 34 32 31 31 29
37 35 32 32 33 33 33 33 31 28 28 29 29 28 30 33 35 38 41 42 43 45 47 49 52 54 58 60 62 64 66 69 73 73 74 75 75 74 76 80 80 78 79 81 78 73 69 65 63 64 65 64 64 64 62 60 59 59 60 61 60 56 53 50 48 51 53 51 48 47 46 45 45 45 44 43 42 42 41 40 39 38 38 36 35 35 33
35 33 31 32 33 32 33 31 27 26 27 28 27 25 26 29 31 33 36 39 43 45 47 49 50 52 55 58 61 63 64 66 70 73 75 76 77 77 77 80 83 82 81 82 81 77 71 67 66 66 67 66 66 67 67 65 65 64 63 63 63 63 62 59 53 51 53 54 53 53 51 49 48 49 49 48 47 45 44 43 42 42 42 40 38 38 36
33 32 31 32 33 32 32 30 28 28 29 28 27 26 26 28 29 28 31 36 40 44 47 49 50 52 53 55 58 61 63 65 67 71 74 76 79 80 80 80 82 84 83 84 84 80 72 68 68 68 67 68 68 69 70 71 70 68 67 66 65 65 65 65 61 56 56 57 58 59 56 53 52 53 53 52 51 49 47 46 45 45 45 43 41 40 38
34 33 32 33 33 32 31 31 31 30 28 28 29 29 29 30 29 28 31 34 37 40 44 47 50 51 52 53 55 57 60 64 67 69 72 75 78 81 83 83 83 84 85 85 86 85 78 71 70 70 67 67 69 70 72 74 74 73 72 71 69 68 69 69 67 64 62 61 62 63 61 57 56 56 56 56 55 53 51 49 48 48 47 46 44 44 42
34 34 34 34 34 33 32 33 33 30 29 30 32 31 31 31 30 30 33 35 36 38 41 44 48 51 53 53 53 54 57 61 64 68 70 72 75 78 81 83 85 86 86 85 86 88 86 81 77 74 71 68 69 70 71 72 74 75 76 75 73 72 73 73 73 72 70 67 66 65 65 62 60 59 59 58 58 56 54 53 51 50 50 49 48 47 46
35 34 34 35 35 33 33 33 33 32 32 33 34 33 33 33 32 33 35 36 37 38 39 41 44 48 52 54 53 53 55 58 61 64 68 70 73 75 78 81 83 85 86 86 85 86 90 91 88 83 79 75 74 74 72 71 72 73 75 75 73 72 74 76 76 75 74 72 70 68 68 67 65 63 62 61 60 59 57 56 55 53 53 52 51 49 48
35 35 35 35 35 34 35 35 34 34 36 36 35 35 35 35 34 35 37 38 38 38 38 39 42 46 50 53 53 53 53 55 58 60 64 67 70 72 75 77 80 82 84 87 87 87 90 94 95 92 88 85 83 81 76 72 72 73 74 74 73 72 73 76 78 77 75 74 73 71 70 69 69 68 66 65 64 62 61 59 58 57 56 55 54 52 50
35 35 35 36 34 34 37 36 35 37 39 38 36 36 36 36 36 37 39 39 39 39 39 38 40 44 48 51 53 53 52 54 55 57 59 62 65 67 71 74 76 79 81 85 88 89 91 93 96 97 96 93 91 88 84 79 77 76 74 75 76 75 74 75 76 78 78 77 76 75 73 72 72 72 71 70 68 67 65 64 62 60 59 58 57 56 55
35 34 35 35 33 33 37 37 36 39 41 39 37 37 36 37 38 39 40 40 39 40 40 39 39 42 45 49 51 52 52 53 54 54 56 58 60 62 65 69 72 75 78 82 85 89 91 93 94 97 99 99 98 95 91 88 85 82 79 78 78 78 78 76 75 75 77 78 78 78 77 76 75 75 75 74 73 72 70 69 67 66 64 62 61 59 58
34 33 33 33 32 33 37 38 39 41 41 38 36 36 36 38 40 40 40 40 40 40 40 40 39 40 43 47 49 50 51 52 52 53 54 55 57 58 59 62 67 71 75 79 83 87 90 92 93 95 98 101 102 101 98 95 93 90 86 82 81 80 80 80 78 76 76 76 77 78 79 79 79 79 78 78 78 77 75 73 72 70 69 68 66 64 62
33 32 32 32 32 34 36 38 39 40 39 36 35 35 36 38 41 40 40 40 41 40 40 41 40 40 41 45 48 49 50 50 51 52 52 53 54 55 56 57 60 65 70 75 80 84 87 90 92 93 96 99 103 104 103 101 99 97 92 87 85 84 82 81 80 80 80 79 78 79 79 80 81 81 81 81 81 81 80 78 76 74 73 71 70 69 68
32 32 32 32 33 33 35 38 39 38 36 35 34 34 35 38 40 41 41 41 42 42 41 41 41 41 41 43 46 48 48 49 50 51 51 51 51 52 54 54 56 59 64 70 75 79 84 89 91 93 94 96 100 104 105 105 104 101 98 94 91 88 86 84 82 82 83 83 82 81 81 82 81 82 83 84 84 83 83 82 81 79 77 75 72 71 71
31 32 33 33 33 32 33 36 38 36 34 33 34 34 35 37 40 41 42 43 44 44 43 41 41 41 41 43 45 47 47 48 49 50 50 49 49 50 51 52 53 55 59 64 69 74 80 85 89 92 93 94 95 99 103 106 106 104 102 100 98 95 92 89 87 84 84 84 84 84 84 84 84 83 84 85 86 86 85 85 84 83 82 80 77 75 74
31 33 33 32 32 31 32 35 36 34 33 33 34 34 35 37 40 42 42 44 44 44 43 42 41 41 41 42 45 46 47 47 49 49 50 49 49 50 51 52 53 54 56 60 64 69 74 79 84 89 92 93 93 93 97 102 105 105 104 103 103 102 100 97 93 90 87 86 86 85 86 86 86 85 85 86 87 87 87 87 87 86 86 85 84 82 79
31 33 33 31 30 30 31 34 35 33 33 34 35 35 35 37 40 41 41 42 42 42 41 40 40 40 41 42 44 46 47 48 49 49 50 50 50 51 51 52 53 55 56 58 61 64 69 74 78 83 88 91 93 92 93 95 100 103 105 105 104 105 105 103 100 97 93 90 88 88 88 87 88 88 88 87 87 88 88 88 88 88 88 88 88 88 86
31 32 32 30 29 30 31 33 34 33 34 34 35 36 36 37 38 39 39 39 39 39 39 39 38 39 39 40 42 44 46 48 49 50 51 51 51 50 50 50 51 53 55 57 58 61 65 69 73 77 81 86 90 92 93 93 94 97 100 103 104 106 106 105 104 102 99 95 92 91 91 90 89 90 90 90 90 89 89 89 89 89 90 90 91 91 91
30 32 31 30 29 30 31 32 34 34 34 34 35 36 37 37 36 36 36 36 36 36 36 36 36 37 38 38 40 43 45 47 49 50 51 51 51 50 50 49 49 50 52 55 56 58 61 65 69 72 76 80 84 88 91 93 94 95 96 97 100 103 106 107 106 103 101 99 97 95 94 94 93 92 92 93 93 93 93 92 92 92 91 91 92 92 92
29 31 31 30 29 29 30 32 34 34 34 34 36 37 36 35 34 32 32 33 34 34 34 34 35 36 36 37 39 42 44 47 49 50 51 51 51 51 50 50 50 50 51 53 55 57 58 61 64 67 72 75 79 82 87 90 93 95 96 96 96 98 102 106 107 105 102 100 100 99 97 97 97 96 95 95 95 96 96 96 96 96 95 95 95 95 95
28 31 31 30 29 29 30 33 34 34 34 35 35 36 35 33 32 30 29 30 31 32 33 33 33 34 35 36 38 40 42 45 47 48 49 50 50 51 51 51 51 52 52 53 55 56 58 60 61 64 67 71 75 78 81 85 89 92 94 95 95 95 97 101 105 106 104 102 101 102 101 99 99 99 99 98 98 97 97 98 99 99 99 99 98 98 98
29 31 30 29 29 30 31 33 33 34 34 35 35 34 33 31 30 29 27 27 28 30 32 32 33 33 34 34 36 38 40 42 44 45 47 48 49 51 51 52 52 52 53 54 55 57 59 61 62 63 65 68 72 75 78 81 84 87 89 92 93 94 95 97 101 104 106 105 104 103 103 103 102 101 102 102 102 100 99 98 99 101 102 102 102 101 101
30 31 30 29 29 31 32 32 33 33 34 34 34 33 32 31 30 28 26 26 26 28 30 31 32 32 33 34 35 37 38 40 41 43 44 46 47 49 50 51 52 52 54 55 56 58 59 61 63 65 65 67 70 73 76 79 81 83 86 88 91 93 94 95 97 101 104 106 106 105 105 105 105 104 103 104 105 105 103 101 100 101 102 103 103 104 104
31 31 30 29 29 32 33 33 33 33 34 34 34 33 32 31 30 27 25 24 25 26 28 29 30 31 32 33 34 35 36 37 39 40 41 43 44 46 47 48 49 50 52 54 56 57 59 61 63 65 67 68 69 70 73 76 79 81 83 86 88 91 93 94 95 97 100 103 105 106 106 106 106 106 105 105 106 107 108 107 105 103 102 102 103 104 105
30 30 30 29 29 31 33 34 33 33 32 33 33 33 32 32 30 27 25 24 24 25 27 28 29 31 31 31 32 33 34 35 36 38 39 41 42 43 44 45 46 47 49 51 53 56 58 60 63 65 67 68 69 70 71 73 76 80 82 84 87 89 91 93 94 95 97 99 102 105 107 107 107 107 107 107 107 107 109 110 109 108 106 105 105 105 106
27 28 29 28 28 30 33 34 33 32 31 32 32 32 31 31 30 27 25 24 23 24 25 27 29 30 30 30 30 31 32 34 35 37 38 38 39 40 42 43 44 45 46 47 50 53 55 58 61 64 66 67 69 70 71 72 73 76 80 83 86 88 90 92 93 94 95 97 99 101 104 106 107 108 108 108 109 109 110 111 111 111 110 109 109 109 109
27 29 30 29 28 30 32 33 32 32 31 31 31 31 31 30 29 27 25 24 23 23 24 26 28 28 29 29 29 30 31 33 34 34 35 35 37 39 40 41 41 41 42 43 45 48 51 54 57 60 63 66 68 70 72 74 74 75 76 79 83 86 88 90 92 94 95 96 97 99 101 103 105 107 108 109 110 110 111 112 113 113 113 112 112 113 113
28 29 29 28 28 31 32 32 32 31 31 31 30 30 30 30 29 27 25 24 24 24 24 25 27 28 29 29 29 30 30 31 31 32 33 34 36 38 39 40 39 38 37 38 40 42 45 49 52 54 57 62 65 69 72 75 77 78 78 78 79 81 84 86 88 91 94 95 97 98 100 101 103 105 107 108 109 110 111 113 114 114 115 115 114 115 116
29 28 28 27 28 30 31 32 31 30 30 30 30 29 29 29 29 28 25 24 24 24 24 25 27 28 29 29 29 29 29 29 29 30 31 33 35 37 38 38 38 36 34 35 36 38 40 43 46 49 52 56 60 64 68 72 76 79 81 82 82 82 82 83 84 86 89 91 94 96 99 101 102 104 106 107 108 109 111 112 113 114 116 117 117 117 118
29 29 28 27 27 28 31 32 31 30 30 30 29 29 29 29 30 29 26 24 24 24 24 24 26 28 28 29 29 29 28 28 28 29 30 32 34 35 36 37 36 34 33 32 33 35 36 38 41 44 47 50 53 57 62 67 72 77 81 83 85 86 86 85 85 85 86 88 90 92 95 97 100 102 104 106 108 109 111 112 113 114 115 117 118 119 120
30 30 29 27 27 29 31 33 32 31 30 30 30 29 29 29 30 30 28 26 25 25 25 25 25 27 27 28 28 28 27 27 27 27 29 30 32 33 34 34 33 32 31 31 31 32 33 36 38 40 43 47 49 52 55 59 64 70 75 79 83 86 87 88 89 88 89 89 90 91 92 94 95 97 99 102 104 107 109 111 113 115 115 116 117 119 121
32 31 29 28 28 29 31 33 32 31 30 31 31 31 31 31 30 29 29 28 27 26 25 25 25 26 27 27 27 27 26 26 26 27 27 28 30 31 32 32 31 30 29 29 29 29 30 33 35 37 40 43 46 49 51 54 57 61 66 71 75 79 83 86 88 90 91 92 93 93 93 94 94 95 97 98 101 103 106 108 111 113 115 117 118 120 122
33 32 30 28 28 30 32 33 33 31 31 31 32 32 34 34 32 29 28 29 28 26 25 25 25 26 26 27 27 27 26 26 27 27 27 27 29 30 31 30 29 28 28 28 27 27 28 29 32 33 35 37 40 44 47 49 52 55 59 62 66 70 74 78 82 85 88 90 92 93 94 95 96 96 97 98 99 101 102 104 107 109 112 114 116 119 122
33 32 30 28 29 31 32 33 33 33 32 32 32 33 35 36 35 33 30 29 28 26 25 25 26 27 27 27 27 27 27 27 27 28 28 28 29 30 30 29 29 28 28 27 26 26 26 27 29 30 31 32 34 37 40 43 47 50 53 56 59 62 66 69 73 76 79 83 85 88 90 93 94 96 97 98 99 100 101 102 103 105 107 109 111 114 117
33 32 31 30 31 32 32 32 33 34 33 33 33 34 34 35 36 36 34 31 28 26 25 26 27 27 27 28 28 28 28 28 29 28 28 29 29 29 29 29 29 28 28 27 26 25 25 26 27 27 28 28 30 31 33 36 39 42 45 48 52 55 58 61 64 67 70 73 76 79 82 85 88 90 92 94 96 97 98 100 101 102 103 104 106 107 110
32 33 33 32 32 32 32 32 34 35 35 34 35 35 34 34 37 38 36 32 29 26 26 27 28 27 27 28 29 29 29 30 30 29 29 30 30 30 29 28 28 28 28 28 27 26 25 25 25 26 27 27 28 29 30 32 33 36 38 40 43 46 49 52 55 57 60 63 66 69 72 75 78 80 82 85 88 90 93 95 96 98 99 100 101 102 104
32 33 34 34 34 34 34 33 33 36 36 35 35 36 36 35 37 39 37 33 30 28 27 27 27 27 27 28 29 30 30 31 31 30 31 31 31 31 30 28 27 27 28 28 28 27 26 26 26 27 27 27 27 28 29 30 31 33 35 36 38 40 42 44 46 49 51 54 57 59 62 65 67 69 72 74 77 80 83 85 87 90 91 93 95 97 99
33 33 34 34 36 36 35 33 33 35 37 37 36 37 37 37 38 39 37 34 32 31 29 28 28 28 28 29 30 31 32 32 32 32 32 33 33 33 32 29 27 27 28 29 29 29 28 27 27 28 29 29 28 29 29 30 31 32 33 35 37 38 40 41 43 45 46 48 50 52 54 57 59 60 62 65 67 70 72 74 76 79 81 83 86 89 91
33 33 34 35 36 36 35 33 33 35 37 38 37 37 37 39 40 39 35 33 34 33 31 30 30 30 30 29 31 32 33 33 34 34 34 34 34 35 34 32 29 28 29 29 30 31 30 29 28 29 31 31 31 31 31 31 32 32 33 35 36 38 39 40 42 44 45 47 49 50 52 54 55 56 58 60 62 65 66 68 70 72 75 77 79 82 85
33 33 33 34 34 34 35 35 35 35 36 38 39 38 38 39 39 37 34 33 34 35 34 33 33 32 31 31 33 34 34 34 35 36 36 36 35 36 36 34 31 30 30 30 31 32 31 30 29 31 32 33 33 33 33 33 34 35 36 37 38 40 41 42 44 46 47 48 50 51 53 54 55 57 58 60 62 64 66 67 68 71 73 75 76 79 82
32 33 33 33 33 33 35 37 37 36 36 37 38 39 39 38 37 35 32 32 34 35 35 34 33 32 32 34 35 35 36 36 37 37 38 38 37 36 36 35 34 32 31 31 32 32 32 31 31 32 33 34 34 35 36 36 37 38 39 41 42 43 44 46 47 48 49 50 51 52 53 54 55 56 58 59 61 64 66 67 68 70 72 74 76 78 81
33 33 33 33 33 34 35 36 36 36 36 36 38 39 38 36 34 32 30 30 32 34 35 35 34 33 34 35 37 37 37 38 39 39 39 39 38 37 36 36 36 35 34 33 34 34 33 32 32 33 33 34 35 36 37 38 40 41 42 44 45 46 47 48 49 49 49 49 50 51 52 53 54 55 57 58 60 62 64 66 67 70 72 74 76 78 80
33 34 34 34 34 34 35 35 35 36 37 37 37 37 35 33 31 30 29 29 30 33 34 34 34 33 34 36 37 37 38 39 40 41 40 39 39 38 37 37 37 37 36 36 36 36 35 35 35 35 35 36 36 37 38 39 41 42 44 46 48 49 50 51 51 51 52 51 52 52 53 53 55 56 57 58 59 61 63 65 67 69 72 74 76 78 80
35 34 34 34 34 34 34 34 35 37 38 38 36 34 33 32 31 30 30 30 31 33 34 34 33 34 34 35 37 38 38 39 40 41 41 40 40 39 38 38 38 38 38 38 39 38 38 38 39 38 38 38 39 39 40 41 42 44 46 47 49 50 52 53 53 54 55 55 55 55 55 55 56 57 58 59 60 61 63 65 67 69 72 74 76 78 79
36 35 35 35 35 35 35 35 36 37 36 35 34 33 33 31 30 29 30 32 33 34 35 34 33 33 33 34 35 37 38 39 40 41 41 41 41 40 40 40 40 39 39 39 40 40 40 41 41 41 41 42 42 43 43 44 45 47 48 49 50 51 52 53 54 55 56 56 56 56 56 57 58 58 60 61 62 63 65 67 69 70 72 74 76 77 79
36 37 36 35 35 35 35 35 34 33 33 33 33 33 31 30 30 32 34 35 35 35 35 35 34 33 32 33 35 37 39 40 41 42 42 42 42 41 41 41 42 42 41 41 41 42 42 42 43 43 44 45 46 46 47 47 48 50 51 52 52 53 54 54 54 54 54 55 55 56 57 58 59 59 61 63 64 65 66 68 70 72 74 76 77 77 79
38 38 37 36 36 35 34 32 30 30 31 32 33 33 32 33 34 36 37 37 37 37 37 37 35 34 34 35 37 39 41 42 42 42 44 45 45 44 43 42 43 43 44 44 44 44 44 45 45 46 47 48 48 49 49 50 51 53 54 55 55 55 54 54 54 54 54 55 55 56 58 59 60 61 63 65 66 67 69 71 73 74 76 77 78 78 79
39 38 38 38 36 34 32 29 27 27 28 31 33 35 37 38 40 40 40 40 40 40 39 38 38 37 38 40 42 43 44 43 43 43 44 46 47 46 45 44 44 45 45 46 46 46 46 47 48 49 49 50 50 51 52 53 55 56 57 58 57 56 54 53 53 54 55 55 56 58 59 61 61 63 64 67 69 71 72 74 76 77 78 79 79 79 79
39 38 38 37 34 30 28 27 26 26 27 29 30 31 35 40 43 44 43 42 41 40 40 39 39 39 40 41 43 45 45 44 43 43 45 47 48 47 47 46 46 47 47 48 48 48 48 49 50 50 51 52 53 54 55 57 58 58 59 59 59 57 55 54 54 54 55 57 58 59 60 62 64 66 67 69 71 73 75 76 78 78 79 79 79 79 78
Wind_Direction
250 250 252 252 252 254 256 258 257 256 256 255 253 252 248 244 243 242 241 238 235 235 233 230 226 224 224 224 225 225 223 223 223 223 222 221 220 218 215 213 216 220 219 217 215 215 215 215 215 215 214 216 218 217 219 225 228 227 227 227 230 233 233 232 234 233 227 225 225 222 222 224 226 225 223 222 222 222 220 218 217 213 212 215 217 216 216
252 253 253 254 255 254 254 257 258 257 257 257 256 255 252 249 246 243 242 241 238 236 235 233 230 227 225 224 224 225 223 222 222 222 222 221 221 220 217 217 220 222 221 221 218 216 215 215 215 216 216 215 215 217 220 224 229 229 227 226 229 233 233 231 232 232 228 225 225 224 223 226 229 227 225 224 223 224 224 223 222 220 217 217 215 216 219
252 253 253 253 254 255 254 255 257 258 259 258 258 258 256 254 251 247 244 243 241 239 236 236 234 231 229 226 224 225 224 223 222 222 223 222 221 221 219 219 222 224 225 225 222 218 217 217 216 215 215 215 216 218 221 224 228 229 227 225 227 230 231 230 231 232 230 228 226 225 225 227 229 228 227 226 226 226 227 226 226 225 225 222 219 221 224
251 252 252 252 254 255 256 256 257 258 259 258 257 258 258 256 254 251 248 245 243 241 239 238 236 234 232 230 227 225 224 224 223 222 223 223 223 222 222 222 222 224 226 227 224 220 219 220 218 216 215 217 219 220 222 223 225 226 225 223 223 227 229 229 231 231 229 229 228 227 227 228 230 231 230 229 228 229 230 230 228 228 228 227 227 230 230
251 251 251 252 253 254 255 256 255 256 258 259 259 258 258 257 256 253 251 247 244 243 242 240 238 235 234 233 231 228 225 224 223 222 223 223 223 223 223 222 223 223 225 226 225 222 221 221 222 219 217 218 219 220 221 221 221 223 224 222 218 219 222 224 227 228 227 228 230 230 230 230 230 233 233 232 230 230 232 232 230 229 230 230 233 236 235
250 250 249 250 250 251 251 251 252 255 258 260 259 258 258 259 258 255 254 251 246 243 242 241 239 237 236 234 233 231 228 225 224 223 223 223 224 224 223 223 223 223 225 226 225 225 224 224 223 222 220 219 219 219 220 220 219 220 223 224 222 221 221 220 223 227 227 229 232 233 233 231 231 233 234 234 233 231 231 232 231 231 231 233 236 237 236
249 247 246 247 248 248 250 251 254 256 258 259 261 263 263 263 262 260 258 255 251 246 243 241 240 239 238 236 235 234 232 229 226 224 224 224 224 224 223 223 223 223 225 226 226 225 226 227 226 223 223 222 221 220 220 219 220 221 223 226 229 229 229 228 230 231 230 231 233 234 234 233 233 235 235 235 235 234 233 232 233 234 235 236 237 237 236
249 244 242 245 248 249 251 254 255 257 259 264 267 267 267 267 267 267 265 260 255 250 246 243 240 239 238 238 237 235 234 232 229 226 224 224 225 224 224 224 224 225 225 227 227 226 225 226 226 223 223 224 222 221 221 220 220 221 223 225 229 232 234 235 235 234 233 232 233 235 235 233 233 235 237 237 237 237 236 235 235 236 238 238 238 238 238
251 245 242 245 248 250 252 254 256 259 263 268 269 268 269 270 271 271 270 267 262 256 251 247 243 240 239 238 238 237 235 234 232 229 227 226 226 226 226 226 226 226 226 227 228 227 225 223 222 221 220 222 222 222 223 223 223 223 224 225 228 232 234 236 235 234 233 233 233 234 236 235 233 234 236 238 239 239 239 239 239 239 239 239 239 239 241
252 249 246 247 249 251 252 255 258 262 265 267 269 269 270 271 272 271 270 270 268 264 258 252 247 243 241 239 237 237 237 235 234 232 230 228 228 228 228 228 228 227 227 227 228 228 227 225 222 220 219 220 220 221 222 225 226 227 227 228 229 231 233 234 235 233 232 233 233 234 235 235 234 234 235 237 239 240 241 241 241 241 240 241 241 242 243
252 251 248 248 250 252 253 255 259 263 265 265 268 270 270 270 270 270 270 271 272 270 266 259 251 246 243 241 238 238 238 237 235 234 233 232 231 230 229 229 229 229 229 228 228 228 229 227 225 223 222 222 223 222 221 223 227 229 230 230 230 230 232 233 233 233 232 232 232 233 234 236 236 236 237 237 238 240 241 242 242 242 242 243 244 244 245
253 252 251 250 251 253 255 256 259 263 264 264 266 269 270 270 270 269 270 271 272 272 271 266 258 250 245 243 241 239 239 238 237 236 235 235 234 233 232 230 230 230 230 229 229 229 230 230 227 225 226 227 228 226 223 222 225 228 231 232 231 230 231 233 233 233 232 232 233 233 234 235 237 238 239 239 239 240 241 241 241 241 242 244 244 245 247
253 254 253 252 252 254 256 257 259 260 261 262 264 267 270 272 272 271 271 271 273 273 272 269 264 255 248 244 242 241 240 240 238 237 236 237 237 237 236 233 231 231 231 230 230 230 231 231 230 228 228 229 230 231 229 226 225 226 228 232 234 234 233 233 233 233 233 234 235 235 235 236 237 239 241 241 241 241 241 241 241 241 241 242 243 244 246
253 254 255 255 255 256 257 258 257 257 258 261 265 268 270 271 272 271 272 273 274 274 273 270 266 260 253 247 244 242 242 242 241 239 238 238 238 239 239 237 235 233 232 232 231 232 232 232 232 231 230 229 230 232 233 232 230 229 229 229 232 235 236 236 235 233 233 234 236 237 237 237 237 239 241 242 243 243 242 243 243 243 242 242 243 243 244
253 254 256 258 257 256 257 257 257 258 260 263 266 268 270 270 270 271 273 274 275 275 274 271 267 262 255 249 245 243 243 243 243 243 241 240 240 239 240 240 238 236 235 234 233 233 233 233 232 232 232 231 231 232 234 234 235 235 234 231 229 231 234 237 238 237 235 234 235 237 237 238 238 239 239 241 243 244 244 244 245 245 245 244 243 243 244
255 257 259 259 258 257 258 259 259 260 263 265 266 267 269 271 271 272 273 275 275 275 274 271 267 262 256 250 245 243 243 244 244 245 245 244 243 242 241 241 240 239 238 237 235 234 234 234 233 232 232 232 232 232 234 235 235 237 237 235 232 230 231 234 236 239 239 238 237 237 237 237 238 239 240 240 242 243 245 245 245 246 247 246 245 244 244
259 260 260 259 258 257 259 260 261 262 263 265 266 268 268 270 273 275 277 277 277 275 273 269 265 261 256 250 245 243 243 244 244 246 247 247 247 246 243 241 241 241 240 239 238 237 236 236 235 234 232 232 232 233 233 234 235 236 237 237 237 235 235 234 234 235 238 240 240 240 239 239 238 239 240 241 242 243 244 245 246 246 247 248 247 246 246
260 261 260 259 258 257 258 261 263 264 265 266 266 266 268 271 275 278 280 280 278 275 272 267 262 258 254 249 245 244 243 244 245 246 247 248 249 250 249 246 243 242 242 241 240 239 239 238 237 236 234 233 233 233 233 234 235 235 236 237 238 239 239 238 237 235 235 237 240 241 241 241 240 240 240 241 242 243 244 245 246 247 248 248 248 248 247
260 261 260 259 258 259 260 262 264 265 265 265 266 267 270 275 278 280 280 279 277 274 271 266 261 256 253 248 245 243 243 243 244 245 247 248 250 251 252 251 248 245 243 243 242 242 241 240 239 238 237 236 235 234 234 234 235 236 236 237 238 240 241 241 241 240 237 236 237 239 241 242 243 243 242 241 242 243 244 245 246 247 248 249 249 249 249
259 260 259 258 258 259 260 261 263 265 264 265 268 272 275 279 281 282 280 277 274 271 268 264 259 255 252 249 245 243 243 243 244 245 246 248 250 251 252 252 251 249 246 244 244 243 243 242 241 240 239 238 237 235 235 235 235 236 237 238 239 240 241 242 243 243 242 239 236 236 239 241 242 243 244 244 243 243 244 245 246 247 248 248 249 251 251
258 259 259 258 257 257 258 260 262 263 264 267 272 277 281 284 285 284 281 276 272 268 264 260 257 255 253 251 247 245 244 244 245 245 246 247 249 251 252 252 252 251 248 246 244 244 244 244 244 243 241 240 239 237 236 236 235 236 237 238 239 240 241 242 243 243 243 242 239 237 237 238 241 242 244 245 245 245 245 246 246 247 248 249 250 251 252
258 259 258 257 257 257 258 260 261 263 266 271 277 282 286 289 289 285 281 276 272 267 262 259 257 255 253 251 250 248 246 246 246 247 248 249 250 251 252 253 253 253 252 249 247 244 244 244 245 245 244 243 241 240 239 238 237 237 238 239 240 240 241 242 243 243 243 243 242 240 237 236 238 240 242 244 245 246 247 247 248 248 249 249 250 251 252
257 258 257 256 257 258 257 258 261 265 271 276 281 287 292 294 293 288 282 277 273 269 263 259 257 256 253 251 250 249 248 247 248 248 249 250 251 252 252 253 253 252 252 252 251 248 245 244 244 245 246 245 244 243 241 240 239 239 239 240 241 241 241 241 242 243 243 242 241 241 240 238 237 237 239 242 244 246 247 248 249 249 250 251 251 252 253
256 257 255 255 256 255 256 258 263 269 275 280 285 292 296 298 296 292 285 279 275 270 264 260 258 258 256 254 252 251 251 250 250 251 251 252 253 253 254 254 253 252 251 251 251 251 249 246 244 244 244 245 246 245 244 243 241 241 241 241 241 242 242 242 241 242 243 242 241 241 241 241 240 238 237 239 241 243 245 247 248 249 250 251 252 253 254
255 255 254 254 255 255 257 260 266 272 277 282 288 294 298 299 298 295 288 282 276 269 263 260 258 258 259 258 257 256 256 255 255 256 256 256 256 257 257 257 256 255 253 251 250 250 250 249 247 245 243 243 244 245 246 245 244 243 242 242 242 242 243 243 242 242 243 243 243 242 241 242 242 241 240 239 239 240 242 244 246 248 249 251 252 253 254
254 254 254 254 254 256 259 263 268 274 279 284 290 295 298 300 300 297 291 285 277 269 262 259 257 258 259 259 259 259 259 259 259 259 259 259 260 260 260 260 259 258 256 254 251 249 249 249 249 248 246 244 243 243 245 246 245 244 244 244 243 243 243 243 244 243 243 244 244 244 244 243 242 242 243 242 241 240 240 241 243 245 247 249 250 252 253
253 254 253 253 255 258 261 266 271 276 281 287 294 298 300 303 303 298 292 287 279 270 263 259 257 257 257 258 259 260 261 262 262 262 262 263 264 264 263 263 262 260 258 256 253 251 248 247 247 247 247 246 244 243 243 244 245 246 245 245 245 245 245 245 245 245 245 245 245 245 246 245 244 243 243 243 243 243 243 242 242 243 244 246 248 249 251
253 253 253 254 256 258 262 267 273 278 283 290 296 300 302 305 305 299 293 288 282 272 264 260 259 258 259 260 261 262 264 266 267 268 268 269 269 269 268 267 266 264 261 258 255 252 250 247 246 245 246 246 246 245 244 243 244 245 246 246 246 246 246 247 247 246 246 246 246 246 247 247 247 246 245 244 244 244 245 245 244 244 243 244 245 246 248
253 254 255 256 257 258 262 268 274 279 284 291 296 299 302 304 306 302 294 289 284 275 267 262 261 262 262 262 263 265 267 270 272 274 274 273 273 272 273 272 271 269 265 261 257 254 251 248 246 245 244 244 245 246 245 245 244 244 245 246 247 247 248 248 248 248 248 248 248 248 248 248 248 249 248 247 246 245 246 247 247 247 246 245 244 245 246
251 253 255 257 257 258 263 269 275 279 285 291 296 299 302 305 307 305 299 293 287 279 270 265 264 264 264 264 265 268 271 274 276 276 276 275 276 277 278 279 277 274 270 266 260 255 252 249 246 245 244 244 243 244 244 245 245 245 245 245 246 247 248 249 249 249 250 250 250 249 249 249 249 249 250 250 249 248 247 247 248 249 249 248 247 246 245
249 251 254 256 257 260 264 270 275 280 287 293 297 300 304 307 309 308 303 298 293 284 276 270 267 267 267 268 270 273 276 278 278 277 277 279 282 285 286 286 284 280 276 270 264 258 253 250 248 246 244 244 243 243 243 243 244 245 246 247 247 247 248 249 250 250 251 251 252 251 251 251 250 250 250 251 251 251 250 249 249 249 250 250 250 249 248
249 251 255 258 260 263 266 271 275 281 287 293 298 301 304 307 309 308 305 301 296 290 282 275 271 271 272 273 276 278 280 280 279 279 281 284 288 291 293 292 289 285 279 273 268 262 257 253 250 248 246 245 244 244 243 243 243 244 245 247 248 249 250 251 251 252 252 252 253 253 253 253 252 252 252 252 252 252 252 252 251 250 250 251 251 252 251
251 254 258 262 264 265 268 271 275 281 287 292 296 299 301 305 308 308 305 299 295 292 287 281 276 275 276 277 279 281 281 280 280 282 285 288 292 295 297 296 294 289 283 276 270 264 260 257 253 250 248 247 247 246 245 244 244 244 245 246 247 249 250 251 252 253 254 254 254 255 255 255 255 254 254 254 254 254 254 254 254 253 253 253 253 253 253
251 255 259 263 265 266 267 270 274 281 286 291 294 296 298 302 306 307 304 298 292 290 289 285 282 281 280 280 281 281 280 280 282 285 288 291 295 299 301 301 299 294 288 281 274 267 262 259 256 253 250 249 249 248 247 246 246 245 246 246 247 248 249 250 252 253 254 255 256 256 257 257 257 257 257 256 256 256 255 255 255 255 255 255 255 255 255
250 254 258 261 265 266 266 269 274 280 286 290 292 294 296 299 302 305 305 299 292 288 288 288 287 285 284 283 282 281 281 281 284 287 290 293 297 302 306 306 304 299 293 286 279 272 266 261 258 255 253 251 250 250 249 249 248 247 247 247 248 248 249 250 251 252 253 254 255 257 257 258 259 259 259 259 259 259 258 258 257 257 257 257 257 257 257
250 254 258 261 264 265 266 270 275 280 284 288 291 293 295 298 301 306 309 304 295 288 287 288 289 287 286 285 284 283 283 284 287 289 292 294 298 303 308 310 309 305 298 292 286 280 273 266 262 258 256 254 252 251 251 250 250 249 248 248 249 249 250 251 251 252 253 254 255 256 257 258 259 260 260 261 261 261 261 261 260 260 259 259 259 259 259
252 255 258 260 262 264 268 271 275 279 282 286 289 292 296 299 302 308 313 309 300 291 287 286 287 287 287 287 286 285 286 287 289 291 293 296 299 303 308 312 313 311 305 299 294 289 281 275 270 266 262 259 256 255 253 252 252 252 251 251 250 250 251 252 252 253 254 255 255 256 257 257 258 259 260 261 262 262 263 263 263 263 263 262 262 261 261
255 257 258 259 261 265 268 271 274 278 282 286 289 292 295 298 301 306 309 307 300 293 288 284 284 285 286 287 287 287 287 288 289 292 295 297 299 302 306 310 314 314 310 305 301 296 290 284 279 275 271 267 263 260 258 256 255 255 254 254 254 253 254 254 254 255 255 256 257 257 258 258 259 260 260 261 262 262 263 263 264 264 265 265 264 264 264
256 258 259 261 263 264 266 269 273 278 282 286 289 291 293 296 298 302 304 302 297 293 290 285 282 282 284 286 287 288 288 288 290 292 295 297 298 301 304 308 312 313 311 308 305 301 297 292 288 283 279 275 272 269 266 263 261 260 259 258 258 257 257 257 258 258 258 258 259 259 259 260 260 261 261 262 262 263 263 263 264 265 265 266 266 266 266
254 257 259 261 263 264 266 270 274 277 281 285 287 288 291 294 296 297 297 295 294 295 292 287 282 281 283 286 288 288 288 289 290 292 294 295 297 299 301 305 308 309 308 307 306 304 300 297 294 290 286 282 279 276 273 271 268 267 265 264 262 262 261 261 261 261 261 261 261 262 262 262 262 263 263 264 264 264 265 265 266 266 266 267 267 267 267
252 254 257 260 263 266 269 272 274 277 280 283 284 286 290 293 294 293 291 289 290 292 292 288 283 281 282 285 288 289 289 288 289 291 292 293 295 297 299 302 304 305 304 303 304 303 301 299 296 292 289 287 284 282 279 277 274 272 271 269 268 267 266 266 265 265 265 265 265 266 266 266 266 266 267 267 267 268 268 268 269 269 269 269 269 269 269
252 253 256 260 264 269 272 274 275 277 280 282 283 286 290 292 292 290 287 284 286 289 291 290 286 283 282 284 286 287 288 288 288 289 289 290 292 294 296 299 300 299 298 299 300 301 301 301 297 293 290 289 287 285 283 281 279 277 276 274 273 272 271 270 270 269 269 269 270 270 270 270 271 271 271 272 272 272 272 272 272 272 272 272 272 271 271
254 256 258 261 266 270 273 274 276 277 279 281 284 288 291 292 291 288 284 281 283 287 289 288 285 283 282 283 284 285 286 286 286 286 286 288 289 291 293 296 296 295 294 295 297 298 300 302 300 295 292 291 289 287 285 283 280 279 277 275 274 273 272 271 271 271 271 272 272 273 273 274 274 275 275 275 275 275 275 275 275 275 275 275 275 274 274
255 258 260 263 265 268 270 273 275 277 279 282 287 290 291 290 288 286 284 282 282 284 284 282 281 281 281 281 282 282 283 284 284 284 284 285 287 289 291 293 293 291 292 293 294 294 297 299 298 295 293 292 291 289 287 285 283 281 279 278 276 275 275 274 274 274 275 275 276 276 276 276 276 276 276 277 277 277 277 277 278 278 278 277 277 277 277
257 259 262 264 266 268 270 273 276 279 282 285 288 289 288 286 284 283 282 281 281 282 282 281 280 279 278 277 278 280 281 282 282 283 282 283 285 288 289 290 290 289 289 289 289 290 292 294 293 293 293 293 292 291 289 287 285 284 282 281 280 280 280 279 279 279 279 279 279 279 279 278 278 278 278 278 278 279 279 280 280 280 280 280 280 280 280
259 261 263 266 267 269 270 273 277 280 284 287 288 288 287 285 283 283 284 285 286 285 285 284 281 278 276 275 276 277 279 279 280 280 281 282 283 285 287 287 287 286 286 286 286 287 288 289 289 290 291 292 292 292 291 289 288 287 286 285 284 283 283 283 283 283 283 283 282 281 281 281 281 281 280 280 280 281 281 282 282 283 283 283 283 283 283
259 261 264 266 267 269 272 276 280 284 287 289 289 288 287 285 283 284 287 290 290 288 286 284 280 277 276 276 275 275 276 277 277 278 278 280 281 283 285 285 284 283 283 284 285 286 287 287 287 288 289 289 290 290 290 290 290 289 288 286 285 285 284 283 283 283 283 283 283 283 284 284 283 283 282 282 283 283 284 284 285 285 286 286 286 286 286
261 262 264 266 268 271 276 281 284 287 289 289 290 290 289 286 284 285 288 288 287 286 284 281 278 277 277 277 276 275 275 275 275 276 277 278 279 281 283 284 283 281 281 281 283 285 286 286 286 286 287 287 288 289 290 291 291 291 290 289 288 286 284 283 282 282 282 282 283 284 284 284 284 284 284 285 285 286 286 286 287 287 288 288 288 289 289
264 266 267 268 271 276 281 284 286 287 287 288 290 291 288 282 280 284 287 285 282 282 281 279 276 275 276 277 278 278 277 276 276 277 278 278 279 281 282 283 283 282 282 281 282 283 284 284 284 284 285 286 287 288 289 290 291 292 292 291 290 288 286 285 284 283 282 282 283 284 284 285 285 286 286 287 287 288 288 289 290 290 291 291 291 291 291
265 267 270 272 274 277 279 280 281 283 285 284 284 283 280 276 278 284 287 285 282 280 278 276 275 275 276 277 279 280 279 278 278 278 278 279 280 281 282 282 281 281 281 281 281 282 283 284 284 284 284 286 287 288 289 290 291 292 292 292 291 289 288 287 286 285 284 284 285 285 285 286 287 288 288 289 290 291 291 292 293 293 294 294 294 294 294
267 269 272 274 275 275 274 274 277 280 280 279 278 278 278 276 277 280 282 282 280 277 275 274 274 275 275 277 277 277 276 277 278 279 279 281 282 282 282 281 280 280 280 281 281 282 283 283 283 284 285 286 287 288 288 289 291 292 292 292 291 290 289 288 287 286 286 286 286 287 287 288 289 289 290 291 293 294 294 295 295 295 296 296 296 296 295
267 269 271 270 269 268 269 272 274 276 276 278 280 280 276 273 274 275 277 277 276 273 271 270 270 271 272 274 275 274 275 277 278 279 279 280 281 281 281 281 281 280 280 281 281 282 283 283 283 284 285 286 286 287 287 289 291 292 293 293 292 291 290 289 288 287 287 287 288 288 289 290 291 292 293 293 294 294 295 296 296 297 297 297 297 297 297
Height
10809 10810 10811 10814 10815 10815 10816 10816 10817 10820 10819 10820 10823 10823 10825 10830 10832 10831 10831 10834 10838 10840 10841 10846 10850 10853 10856 10858 10859 10862 10868 10873 10877 10880 10885 10890 10895 10900 10904 10907 10910 10912 10916 10920 10925 10928 10931 10935 10939 10941 10943 10945 10947 10950 10951 10952 10953 10956 10960 10963 10966 10968 10970 10972 10974 10976 10977 10979 10980 10981 10983 10984 10984 10984 10985 10986 10987 10987 10988 10989 10990 10990 10990 10990 10990 10992 10994
10803 10805 10808 10809 10809 10810 10812 10811 10812 10814 10813 10815 10817 10817 10821 10825 10825 10825 10827 10829 10832 10834 10835 10839 10843 10846 10849 10852 10853 10856 10861 10866 10870 10873 10877 10882 10886 10891 10897 10900 10903 10906 10910 10913 10918 10921 10924 10928 10932 10934 10935 10938 10941 10943 10945 10947 10949 10952 10956 10959 10961 10963 10966 10969 10970 10972 10974 10975 10977 10978 10979 10980 10981 10982 10983 10983 10984 10985 10985 10986 10987 10987 10987 10988 10988 10990 10992
10799 10801 10803 10804 10804 10805 10806 10807 10808 10809 10809 10811 10812 10813 10816 10818 10818 10820 10823 10824 10825 10828 10831 10833 10836 10839 10842 10844 10846 10849 10854 10859 10864 10866 10869 10874 10879 10883 10888 10892 10895 10900 10904 10905 10909 10913 10916 10920 10924 10926 10928 10931 10934 10936 10938 10941 10944 10947 10951 10953 10956 10959 10962 10964 10966 10968 10970 10971 10973 10974 10975 10977 10978 10979 10979 10980 10981 10982 10983 10983 10984 10985 10986 10986 10987 10988 10990
10795 10797 10799 10799 10800 10800 10801 10803 10804 10804 10804 10805 10807 10809 10810 10811 10812 10815 10817 10817 10819 10822 10825 10827 10828 10831 10834 10837 10839 10842 10847 10852 10857 10860 10863 10866 10870 10875 10880 10884 10889 10893 10895 10896 10901 10905 10909 10913 10916 10919 10921 10924 10927 10929 10931 10934 10938 10943 10946 10948 10952 10955 10958 10960 10962 10963 10964 10967 10968 10969 10970 10972 10974 10975 10975 10977 10978 10979 10980 10981 10982 10983 10984 10985 10986 10987 10988
10790 10792 10794 10795 10796 10796 10797 10798 10798 10799 10800 10800 10802 10804 10804 10805 10807 10809 10809 10811 10814 10816 10818 10819 10821 10823 10826 10829 10832 10835 10840 10845 10849 10853 10856 10859 10863 10867 10872 10877 10882 10883 10883 10889 10896 10900 10903 10907 10910 10913 10915 10916 10919 10921 10923 10927 10932 10936 10939 10943 10946 10947 10950 10954 10956 10957 10959 10961 10962 10963 10965 10967 10969 10971 10971 10973 10975 10976 10977 10978 10980 10981 10981 10983 10984 10985 10986
10785 10788 10790 10791 10791 10792 10792 10792 10793 10795 10796 10796 10797 10799 10800 10800 10801 10803 10803 10805 10807 10809 10810 10811 10813 10816 10819 10821 10825 10829 10833 10838 10842 10846 10849 10852 10855 10860 10864 10869 10872 10872 10875 10884 10891 10894 10897 10901 10903 10906 10908 10909 10911 10914 10917 10921 10925 10928 10931 10934 10937 10939 10942 10946 10949 10951 10952 10955 10957 10958 10960 10962 10964 10966 10967 10968 10970 10971 10972 10974 10976 10977 10978 10980 10981 10982 10984
10780 10784 10786 10786 10786 10787 10787 10788 10790 10791 10791 10791 10792 10794 10796 10795 10796 10798 10798 10798 10799 10800 10802 10804 10807 10809 10812 10815 10818 10822 10827 10831 10835 10838 10842 10845 10847 10851 10856 10860 10862 10864 10868 10876 10884 10889 10892 10894 10896 10899 10901 10903 10906 10908 10911 10914 10917 10920 10923 10925 10928 10932 10935 10938 10942 10944 10945 10947 10950 10951 10953 10957 10960 10961 10962 10963 10964 10966 10968 10970 10972 10973 10974 10976 10977 10978 10981
10776 10780 10782 10781 10781 10782 10783 10785 10786 10786 10786 10787 10788 10790 10791 10791 10792 10794 10792 10791 10791 10793 10794 10797 10800 10803 10806 10808 10812 10815 10819 10822 10826 10830 10834 10837 10840 10843 10848 10851 10854 10858 10862 10869 10876 10882 10886 10887 10889 10891 10894 10896 10899 10902 10904 10906 10909 10912 10916 10918 10920 10924 10927 10931 10934 10936 10937 10939 10942 10943 10946 10951 10954 10955 10956 10957 10959 10961 10963 10965 10967 10968 10970 10972 10973 10974 10976
10772 10774 10776 10776 10777 10779 10780 10780 10781 10781 10783 10784 10783 10785 10786 10786 10788 10789 10787 10784 10784 10786 10787 10790 10793 10796 10799 10801 10804 10807 10810 10813 10816 10821 10826 10829 10832 10835 10839 10843 10847 10851 10856 10862 10868 10872 10877 10880 10881 10883 10886 10888 10892 10895 10897 10899 10902 10905 10908 10911 10914 10916 10919 10922 10924 10927 10930 10932 10934 10937 10939 10943 10946 10948 10950 10951 10953 10955 10957 10960 10962 10964 10965 10967 10968 10970 10971
10767 10769 10772 10772 10773 10774 10776 10776 10776 10777 10780 10779 10778 10780 10781 10781 10783 10784 10781 10779 10779 10779 10781 10784 10787 10789 10791 10794 10797 10800 10802 10805 10808 10813 10817 10821 10824 10828 10831 10835 10839 10843 10849 10855 10860 10863 10867 10870 10871 10874 10877 10881 10885 10888 10890 10892 10894 10897 10900 10903 10906 10908 10910 10913 10915 10918 10921 10925 10928 10931 10933 10936 10939 10942 10943 10945 10947 10950 10952 10954 10957 10958 10960 10962 10963 10964 10965
10762 10765 10766 10767 10768 10770 10771 10771 10772 10773 10774 10774 10774 10775 10776 10777 10778 10777 10775 10774 10774 10775 10776 10778 10780 10782 10784 10787 10791 10793 10795 10797 10801 10804 10809 10813 10816 10819 10823 10826 10830 10835 10841 10846 10851 10853 10853 10855 10859 10863 10866 10871 10875 10878 10881 10885 10887 10890 10892 10896 10899 10900 10902 10904 10906 10909 10914 10918 10922 10925 10927 10930 10932 10934 10936 10938 10940 10943 10946 10948 10950 10952 10954 10955 10957 10958 10959
10758 10760 10761 10763 10765 10766 10765 10766 10769 10768 10767 10768 10770 10770 10770 10771 10773 10772 10769 10769 10770 10770 10770 10771 10773 10774 10776 10779 10783 10786 10788 10790 10793 10797 10800 10804 10807 10810 10813 10817 10822 10827 10831 10836 10840 10840 10839 10843 10849 10853 10857 10861 10864 10868 10873 10878 10881 10883 10885 10888 10890 10892 10894 10896 10899 10903 10908 10913 10916 10918 10922 10924 10926 10927 10929 10930 10933 10935 10938 10940 10943 10945 10947 10948 10950 10952 10953
10753 10755 10756 10757 10760 10761 10760 10761 10764 10762 10760 10763 10766 10766 10766 10766 10766 10765 10763 10763 10765 10765 10765 10766 10766 10767 10770 10772 10776 10779 10781 10783 10786 10790 10793 10795 10798 10801 10804 10808 10813 10817 10821 10824 10827 10829 10830 10834 10840 10844 10848 10852 10855 10859 10865 10870 10873 10876 10879 10881 10882 10884 10886 10888 10892 10897 10902 10906 10909 10911 10914 10917 10919 10921 10922 10923 10925 10927 10929 10932 10935 10937 10939 10941 10943 10945 10946
10748 10750 10750 10752 10756 10757 10754 10756 10757 10755 10754 10758 10761 10762 10762 10762 10760 10758 10757 10758 10759 10759 10759 10760 10760 10761 10763 10766 10769 10772 10774 10776 10779 10782 10785 10788 10791 10793 10796 10799 10803 10807 10810 10813 10816 10818 10820 10825 10831 10835 10839 10843 10846 10850 10855 10860 10863 10867 10871 10874 10875 10877 10878 10881 10885 10890 10894 10898 10900 10902 10905 10908 10911 10913 10914 10915 10917 10919 10921 10924 10926 10928 10931 10933 10935 10938 10939
10743 10745 10746 10748 10751 10751 10749 10749 10750 10748 10750 10755 10757 10757 10757 10755 10753 10752 10752 10752 10753 10753 10753 10753 10754 10755 10756 10759 10762 10764 10766 10769 10771 10774 10777 10780 10783 10785 10788 10790 10794 10797 10800 10802 10805 10808 10811 10816 10822 10826 10830 10834 10837 10841 10845 10850 10854 10857 10860 10864 10868 10869 10871 10874 10878 10882 10886 10889 10891 10893 10896 10899 10901 10903 10905 10907 10908 10910 10912 10915 10917 10920 10922 10925 10927 10929 10931
10738 10740 10741 10743 10744 10745 10744 10743 10743 10743 10746 10749 10751 10752 10751 10748 10745 10746 10747 10747 10747 10747 10747 10747 10747 10748 10750 10752 10754 10757 10759 10762 10764 10766 10769 10772 10775 10777 10780 10783 10785 10788 10790 10791 10794 10798 10801 10805 10810 10815 10819 10823 10827 10831 10834 10839 10842 10846 10850 10854 10858 10861 10864 10867 10870 10873 10876 10879 10882 10884 10887 10889 10892 10894 10896 10898 10900 10901 10903 10906 10908 10911 10913 10916 10918 10921 10923
10734 10735 10736 10737 10739 10740 10739 10737 10736 10738 10741 10743 10745 10747 10746 10743 10740 10740 10741 10741 10740 10740 10741 10740 10741 10742 10743 10745 10747 10750 10752 10755 10757 10759 10761 10764 10766 10768 10771 10774 10776 10778 10780 10781 10784 10788 10791 10794 10798 10803 10807 10811 10816 10820 10824 10828 10832 10836 10840 10844 10848 10851 10854 10858 10861 10864 10867 10869 10872 10875 10877 10880 10883 10885 10887 10889 10891 10893 10895 10897 10899 10901 10904 10906 10909 10912 10914
10730 10730 10730 10732 10733 10734 10734 10731 10730 10733 10736 10738 10739 10741 10741 10739 10736 10735 10735 10734 10732 10732 10733 10734 10734 10735 10737 10738 10741 10743 10746 10748 10749 10752 10754 10756 10759 10760 10762 10765 10768 10770 10771 10772 10775 10778 10780 10783 10787 10792 10796 10801 10806 10811 10814 10818 10822 10827 10831 10834 10837 10840 10843 10847 10850 10854 10857 10860 10862 10865 10867 10870 10872 10876 10878 10880 10882 10884 10886 10888 10890 10892 10895 10897 10899 10902 10904
10725 10724 10725 10727 10728 10729 10729 10726 10725 10728 10731 10732 10733 10735 10736 10734 10731 10730 10730 10728 10725 10724 10725 10726 10727 10729 10730 10732 10734 10736 10739 10741 10743 10745 10747 10749 10752 10753 10755 10756 10759 10761 10763 10764 10765 10767 10769 10772 10776 10781 10785 10790 10795 10800 10805 10809 10813 10817 10821 10825 10828 10830 10832 10835 10839 10843 10847 10851 10853 10855 10858 10860 10863 10865 10868 10871 10873 10875 10877 10879 10881 10883 10885 10887 10888 10891 10893
10719 10719 10719 10722 10723 10724 10723 10721 10721 10724 10726 10726 10727 10728 10730 10729 10726 10724 10723 10721 10719 10718 10718 10719 10720 10722 10723 10725 10727 10730 10732 10734 10736 10739 10741 10743 10745 10746 10748 10749 10750 10752 10754 10756 10757 10758 10759 10762 10766 10770 10774 10779 10784 10789 10794 10798 10802 10806 10809 10814 10817 10820 10821 10824 10827 10832 10836 10841 10844 10847 10849 10851 10853 10855 10858 10860 10863 10866 10868 10870 10872 10874 10876 10877 10878 10879 10881
10715 10714 10715 10717 10719 10719 10718 10717 10717 10719 10720 10721 10722 10722 10723 10723 10721 10718 10715 10713 10712 10712 10712 10712 10714 10715 10717 10719 10721 10724 10726 10728 10730 10732 10734 10736 10738 10739 10741 10742 10743 10744 10746 10748 10749 10750 10751 10753 10756 10759 10763 10768 10773 10778 10782 10786 10791 10794 10798 10802 10805 10808 10811 10813 10816 10820 10824 10829 10833 10837 10839 10841 10843 10845 10848 10850 10852 10855 10857 10860 10862 10864 10865 10867 10868 10869 10870
10710 10710 10710 10712 10713 10714 10714 10713 10713 10714 10715 10716 10716 10716 10716 10716 10715 10713 10710 10707 10706 10706 10707 10707 10708 10710 10712 10714 10716 10717 10719 10721 10722 10725 10727 10729 10731 10732 10734 10735 10736 10737 10738 10739 10741 10743 10744 10746 10747 10750 10753 10757 10761 10766 10770 10775 10779 10783 10787 10790 10793 10796 10799 10802 10805 10809 10813 10817 10821 10825 10828 10831 10833 10835 10837 10840 10842 10844 10847 10849 10851 10853 10855 10856 10858 10859 10860
10706 10704 10705 10707 10709 10710 10710 10709 10708 10709 10710 10711 10710 10710 10710 10709 10708 10707 10705 10702 10700 10701 10701 10702 10704 10705 10706 10709 10711 10712 10713 10714 10716 10718 10720 10722 10724 10725 10727 10728 10729 10730 10731 10732 10733 10734 10736 10738 10740 10742 10744 10747 10751 10755 10759 10763 10767 10771 10775 10778 10782 10784 10787 10790 10793 10797 10801 10805 10809 10812 10815 10818 10821 10824 10827 10829 10831 10834 10836 10838 10840 10841 10843 10845 10846 10848 10849
10701 10699 10700 10702 10704 10705 10705 10704 10704 10704 10705 10705 10705 10704 10704 10702 10701 10701 10700 10698 10696 10695 10696 10697 10698 10699 10701 10703 10705 10706 10707 10708 10710 10711 10714 10715 10717 10718 10719 10720 10721 10723 10724 10725 10725 10726 10728 10730 10732 10734 10736 10738 10740 10744 10747 10751 10755 10759 10762 10766 10770 10773 10775 10778 10782 10785 10789 10792 10796 10799 10803 10806 10809 10812 10815 10817 10820 10822 10825 10827 10828 10830 10832 10833 10835 10836 10838
10695 10694 10695 10698 10699 10700 10700 10700 10700 10701 10700 10700 10700 10699 10698 10697 10696 10695 10694 10693 10692 10691 10691 10692 10693 10694 10696 10698 10699 10700 10701 10702 10704 10706 10707 10709 10709 10710 10711 10712 10713 10714 10716 10717 10717 10718 10719 10720 10722 10725 10728 10730 10731 10734 10737 10740 10744 10748 10751 10755 10758 10761 10763 10766 10769 10772 10776 10779 10783 10787 10790 10793 10796 10799 10802 10804 10807 10810 10813 10815 10817 10818 10820 10822 10823 10825 10826
10690 10690 10691 10694 10695 10695 10695 10696 10696 10696 10695 10695 10695 10694 10693 10691 10690 10689 10689 10688 10687 10687 10687 10688 10689 10690 10691 10693 10694 10695 10696 10697 10698 10700 10701 10701 10702 10702 10703 10703 10704 10705 10706 10706 10708 10709 10710 10711 10713 10715 10717 10720 10722 10725 10727 10730 10733 10737 10740 10743 10746 10749 10751 10754 10757 10760 10764 10767 10770 10773 10777 10780 10783 10786 10789 10792 10794 10797 10800 10803 10804 10806 10808 10810 10811 10812 10814
10685 10686 10688 10690 10691 10690 10690 10691 10691 10691 10690 10690 10689 10688 10687 10686 10685 10684 10683 10683 10682 10682 10682 10683 10685 10686 10687 10689 10690 10691 10691 10692 10693 10694 10695 10695 10695 10695 10695 10695 10696 10696 10696 10696 10697 10699 10701 10702 10703 10705 10706 10708 10712 10715 10718 10721 10724 10727 10730 10733 10735 10737 10740 10743 10746 10749 10752 10755 10758 10761 10763 10766 10770 10773 10777 10779 10781 10784 10787 10789 10791 10793 10795 10796 10797 10798 10800
10682 10682 10684 10686 10688 10687 10685 10685 10686 10687 10686 10685 10684 10683 10682 10680 10680 10679 10678 10678 10677 10677 10678 10679 10680 10681 10683 10684 10686 10686 10687 10687 10688 10688 10688 10688 10688 10687 10687 10687 10687 10687 10686 10687 10687 10688 10690 10692 10693 10694 10696 10698 10701 10705 10709 10712 10714 10717 10720 10722 10724 10727 10729 10731 10735 10738 10740 10743 10745 10748 10750 10753 10756 10760 10763 10767 10769 10770 10773 10775 10777 10779 10781 10783 10784 10784 10786
10679 10679 10679 10682 10684 10683 10682 10681 10682 10682 10682 10681 10680 10679 10677 10676 10675 10674 10673 10673 10672 10673 10673 10674 10675 10676 10678 10680 10681 10681 10682 10682 10682 10681 10681 10681 10681 10680 10679 10679 10679 10678 10677 10678 10678 10678 10679 10681 10682 10684 10687 10690 10692 10695 10698 10702 10705 10708 10710 10712 10714 10716 10718 10721 10724 10726 10728 10730 10733 10735 10738 10741 10743 10746 10749 10752 10755 10757 10759 10760 10762 10764 10766 10768 10770 10771 10772
10675 10675 10675 10677 10679 10678 10678 10677 10677 10678 10678 10677 10676 10675 10673 10671 10670 10670 10669 10668 10668 10668 10669 10670 10671 10672 10673 10674 10676 10676 10676 10676 10675 10675 10674 10674 10674 10673 10672 10671 10670 10670 10669 10669 10668 10669 10669 10670 10672 10675 10678 10680 10683 10685 10688 10691 10694 10697 10700 10702 10705 10706 10708 10710 10713 10715 10717 10718 10721 10723 10726 10728 10730 10732 10734 10737 10740 10743 10745 10746 10748 10749 10751 10753 10754 10755 10756
10671 10671 10671 10672 10674 10673 10673 10673 10673 10673 10673 10672 10670 10669 10668 10667 10666 10665 10664 10664 10663 10663 10664 10665 10666 10667 10668 10669 10670 10671 10671 10670 10670 10669 10668 10668 10667 10666 10665 10664 10662 10662 10661 10660 10660 10660 10661 10661 10664 10667 10669 10670 10673 10676 10678 10681 10684 10687 10689 10692 10694 10697 10698 10700 10702 10704 10705 10707 10709 10711 10713 10715 10717 10719 10721 10723 10725 10727 10729 10731 10733 10735 10736 10738 10739 10739 10740
10665 10665 10666 10668 10669 10669 10668 10668 10668 10669 10668 10667 10666 10665 10663 10662 10661 10660 10660 10660 10659 10658 10659 10660 10661 10662 10663 10664 10664 10665 10665 10665 10664 10663 10663 10662 10661 10660 10658 10656 10655 10654 10654 10653 10652 10652 10653 10654 10656 10658 10660 10661 10664 10667 10669 10672 10675 10677 10680 10682 10684 10686 10688 10690 10692 10693 10695 10696 10697 10698 10700 10702 10704 10705 10707 10709 10711 10713 10714 10716 10718 10720 10722 10723 10723 10723 10724
10659 10660 10661 10664 10665 10665 10664 10663 10664 10664 10664 10663 10662 10661 10659 10658 10658 10657 10656 10656 10655 10654 10655 10655 10656 10657 10658 10659 10659 10659 10659 10659 10659 10659 10658 10657 10656 10654 10652 10650 10648 10647 10647 10646 10645 10646 10646 10647 10648 10650 10652 10653 10655 10658 10661 10663 10666 10668 10670 10672 10674 10676 10678 10680 10682 10683 10684 10685 10686 10687 10687 10689 10691 10693 10695 10696 10698 10699 10700 10701 10703 10705 10707 10708 10708 10708 10707
10654 10655 10657 10659 10661 10661 10660 10659 10659 10660 10659 10658 10657 10657 10656 10655 10654 10653 10652 10652 10651 10650 10650 10651 10652 10653 10653 10654 10654 10654 10654 10654 10654 10654 10653 10652 10651 10649 10647 10645 10643 10641 10640 10640 10640 10640 10640 10641 10642 10643 10644 10646 10647 10649 10652 10654 10656 10658 10660 10663 10665 10666 10668 10670 10672 10673 10674 10675 10675 10676 10677 10678 10679 10680 10682 10683 10684 10685 10687 10687 10688 10689 10691 10692 10692 10692 10691
10649 10651 10653 10655 10656 10657 10656 10654 10654 10655 10655 10653 10652 10651 10651 10650 10650 10649 10648 10647 10647 10647 10647 10647 10648 10648 10649 10649 10649 10649 10649 10649 10649 10649 10649 10648 10646 10645 10643 10641 10638 10637 10635 10634 10634 10635 10635 10635 10635 10636 10638 10639 10640 10642 10644 10646 10647 10649 10651 10653 10655 10656 10658 10659 10661 10662 10663 10664 10665 10665 10666 10667 10668 10669 10669 10670 10670 10671 10672 10673 10673 10674 10676 10677 10678 10676 10674
10645 10646 10648 10650 10651 10652 10651 10650 10650 10651 10650 10649 10647 10646 10645 10644 10645 10646 10645 10643 10643 10643 10643 10643 10643 10644 10644 10645 10645 10645 10645 10645 10644 10644 10644 10643 10642 10641 10639 10637 10635 10633 10631 10630 10630 10631 10631 10630 10630 10630 10632 10633 10634 10635 10637 10638 10639 10641 10643 10644 10646 10647 10648 10649 10650 10651 10652 10653 10654 10655 10655 10656 10657 10657 10657 10657 10657 10658 10658 10658 10659 10659 10660 10661 10663 10661 10657
10641 10642 10644 10646 10646 10646 10646 10646 10646 10645 10645 10644 10643 10641 10639 10637 10637 10639 10640 10640 10639 10639 10639 10639 10639 10640 10640 10640 10640 10640 10640 10640 10639 10639 10639 10638 10637 10636 10635 10633 10631 10630 10628 10626 10627 10627 10627 10626 10625 10626 10627 10628 10629 10629 10630 10631 10632 10633 10634 10636 10637 10638 10639 10640 10640 10641 10642 10643 10643 10644 10645 10645 10645 10646 10646 10646 10646 10646 10646 10645 10645 10644 10644 10645 10646 10646 10643
10636 10637 10639 10640 10641 10641 10642 10641 10640 10639 10639 10640 10639 10638 10637 10634 10632 10633 10635 10636 10635 10635 10635 10635 10635 10636 10636 10636 10636 10636 10636 10635 10635 10634 10634 10634 10633 10632 10631 10630 10628 10626 10624 10623 10623 10624 10623 10622 10622 10622 10622 10623 10623 10624 10625 10625 10626 10626 10627 10628 10629 10629 10630 10631 10631 10632 10633 10633 10634 10634 10634 10634 10634 10635 10635 10635 10634 10634 10634 10633 10631 10630 10630 10629 10629 10630 10629
10632 10633 10634 10635 10636 10636 10637 10637 10636 10635 10635 10635 10635 10634 10634 10633 10630 10629 10630 10631 10631 10631 10631 10631 10631 10631 10632 10632 10632 10631 10631 10631 10630 10630 10630 10629 10628 10627 10627 10627 10626 10624 10621 10620 10620 10620 10620 10619 10619 10618 10618 10619 10619 10619 10619 10620 10620 10620 10620 10621 10621 10622 10622 10623 10623 10623 10624 10624 10624 10624 10624 10624 10624 10624 10624 10623 10622 10621 10621 10620 10619 10618 10618 10617 10616 10616 10614
10630 10629 10629 10630 10630 10631 10633 10635 10634 10632 10631 10632 10631 10630 10630 10629 10627 10625 10625 10626 10626 10626 10627 10627 10626 10627 10627 10627 10627 10627 10626 10626 10625 10625 10625 10624 10623 10623 10623 10623 10623 10621 10618 10617 10617 10616 10616 10616 10616 10615 10614 10615 10615 10615 10615 10615 10615 10615 10615 10615 10615 10615 10615 10615 10615 10615 10615 10615 10615 10615 10615 10614 10614 10614 10614 10612 10610 10609 10609 10608 10608 10607 10606 10604 10603 10602 10600
10626 10626 10625 10625 10625 10625 10628 10631 10631 10629 10627 10627 10627 10626 10626 10625 10623 10621 10621 10621 10620 10621 10622 10622 10622 10622 10622 10623 10623 10622 10621 10620 10620 10620 10620 10619 10618 10618 10618 10619 10619 10618 10615 10614 10613 10613 10613 10613 10613 10611 10610 10611 10611 10611 10610 10610 10610 10610 10610 10610 10609 10609 10609 10609 10608 10608 10608 10607 10607 10606 10606 10605 10604 10604 10604 10602 10600 10598 10598 10598 10596 10595 10593 10591 10589 10587 10585
10621 10621 10621 10621 10620 10620 10622 10625 10626 10625 10622 10621 10621 10622 10621 10620 10618 10617 10616 10615 10615 10615 10616 10617 10616 10616 10617 10618 10618 10617 10617 10616 10616 10615 10615 10615 10614 10613 10613 10614 10615 10615 10613 10611 10610 10609 10609 10609 10609 10608 10606 10606 10607 10606 10606 10606 10606 10605 10605 10604 10604 10603 10603 10602 10602 10601 10601 10600 10599 10598 10597 10596 10596 10595 10594 10593 10590 10588 10587 10587 10585 10582 10581 10579 10577 10574 10571
10616 10616 10616 10617 10617 10617 10616 10617 10619 10619 10618 10616 10615 10616 10616 10614 10612 10611 10611 10610 10609 10609 10610 10611 10611 10611 10611 10612 10612 10612 10612 10612 10611 10611 10610 10610 10610 10609 10609 10609 10610 10610 10609 10608 10606 10605 10604 10605 10605 10603 10602 10602 10602 10602 10601 10601 10601 10600 10600 10599 10598 10597 10597 10596 10595 10594 10594 10593 10592 10591 10589 10588 10587 10586 10585 10583 10581 10578 10576 10576 10574 10571 10568 10567 10565 10562 10558
10609 10610 10611 10612 10613 10613 10612 10611 10611 10613 10614 10613 10611 10610 10609 10607 10606 10604 10604 10605 10605 10605 10605 10606 10606 10606 10606 10606 10606 10606 10607 10607 10607 10606 10605 10605 10605 10605 10605 10604 10605 10605 10605 10604 10602 10601 10601 10601 10600 10599 10598 10597 10597 10597 10596 10596 10595 10594 10594 10593 10591 10591 10590 10589 10588 10587 10586 10585 10584 10583 10581 10580 10579 10577 10575 10574 10571 10567 10565 10564 10563 10560 10557 10555 10553 10549 10545
10603 10604 10605 10607 10608 10607 10607 10606 10606 10607 10608 10608 10607 10605 10603 10602 10601 10600 10600 10601 10601 10600 10600 10600 10600 10600 10600 10600 10600 10601 10601 10601 10601 10601 10600 10600 10601 10601 10601 10600 10599 10599 10599 10599 10598 10597 10597 10597 10596 10595 10594 10593 10592 10592 10591 10590 10589 10588 10587 10586 10585 10584 10583 10582 10580 10579 10578 10577 10576 10574 10572 10571 10570 10568 10566 10565 10562 10559 10556 10554 10551 10548 10545 10542 10539 10536 10533
10597 10598 10600 10601 10601 10601 10601 10601 10601 10601 10600 10600 10600 10599 10598 10597 10596 10595 10595 10596 10596 10595 10594 10594 10595 10595 10594 10594 10594 10595 10595 10595 10595 10594 10594 10595 10595 10596 10596 10596 10594 10593 10593 10593 10592 10592 10592 10592 10591 10590 10589 10588 10587 10586 10585 10584 10583 10582 10581 10579 10578 10577 10575 10574 10572 10571 10570 10568 10567 10565 10564 10562 10560 10558 10556 10555 10553 10550 10547 10544 10541 10537 10534 10530 10526 10523 10519
10593 10594 10594 10594 10594 10594 10594 10594 10595 10594 10592 10592 10592 10592 10592 10592 10592 10591 10590 10590 10590 10589 10589 10589 10589 10589 10588 10588 10589 10589 10589 10589 10588 10588 10588 10589 10589 10589 10590 10591 10590 10589 10588 10587 10586 10586 10586 10586 10585 10585 10584 10583 10581 10580 10579 10578 10577 10576 10574 10572 10571 10569 10567 10566 10565 10564 10561 10559 10558 10556 10555 10553 10551 10548 10546 10545 10543 10541 10538 10535 10531 10527 10523 10519 10514 10510 10506
10587 10588 10589 10589 10588 10588 10588 10588 10587 10586 10585 10584 10584 10584 10584 10584 10585 10585 10584 10584 10584 10584 10584 10584 10583 10583 10583 10583 10582 10582 10583 10582 10582 10581 10582 10582 10583 10584 10584 10584 10584 10584 10583 10583 10581 10581 10580 10580 10579 10578 10578 10576 10575 10574 10573 10572 10571 10569 10567 10565 10564 10562 10559 10558 10557 10556 10553 10551 10550 10548 10545 10543 10541 10539 10537 10535 10533 10530 10528 10524 10521 10517 10513 10509 10504 10499 10494
10580 10581 10582 10583 10583 10582 10582 10582 10581 10579 10578 10577 10576 10576 10575 10576 10577 10578 10578 10578 10579 10579 10579 10578 10577 10577 10577 10577 10577 10576 10576 10576 10576 10576 10575 10575 10577 10578 10579 10579 10577 10577 10577 10577 10577 10576 10575 10574 10573 10572 10571 10570 10568 10567 10566 10565 10564 10562 10559 10557 10556 10554 10551 10549 10548 10547 10545 10543 10541 10539 10536 10534 10532 10530 10527 10524 10522 10520 10517 10513 10509 10505 10500 10496 10492 10487 10482
10574 10574 10575 10576 10577 10577 10576 10575 10575 10574 10573 10572 10571 10570 10569 10570 10571 10571 10572 10572 10573 10573 10573 10572 10572 10572 10571 10571 10571 10571 10570 10569 10570 10570 10570 10569 10570 10572 10574 10573 10572 10571 10570 10570 10569 10569 10568 10567 10566 10565 10564 10562 10561 10560 10559 10557 10556 10554 10551 10549 10548 10545 10543 10541 10539 10537 10535 10533 10532 10530 10527 10525 10523 10520 10517 10512 10510 10507 10505 10501 10497 10493 10488 10483 10478 10474 10469
10569 10569 10569 10569 10569 10570 10570 10569 10569 10570 10570 10569 10568 10567 10566 10566 10566 10566 10566 10567 10567 10567 10566 10566 10566 10566 10566 10566 10565 10564 10563 10564 10565 10566 10564 10563 10563 10564 10566 10566 10566 10565 10564 10563 10562 10562 10561 10560 10558 10557 10556 10555 10553 10552 10550 10549 10548 10546 10543 10541 10538 10537 10536 10534 10531 10529 10526 10524 10522 10520 10517 10514 10512 10510 10507 10502 10499 10495 10491 10488 10484 10480 10475 10470 10465 10460 10455
10563 10563 10562 10562 10563 10564 10564 10564 10564 10565 10564 10564 10565 10565 10564 10562 10561 10560 10561 10561 10561 10560 10560 10560 10560 10560 10560 10560 10558 10557 10557 10559 10560 10561 10559 10557 10556 10557 10558 10558 10558 10558 10557 10556 10555 10555 10554 10552 10550 10549 10548 10547 10545 10544 10542 10540 10540 10538 10536 10532 10529 10527 10526 10525 10523 10521 10518 10515 10513 10511 10508 10504 10501 10498 10495 10491 10488 10485 10480 10476 10472 10467 10462 10457 10452 10447 10442